Harlan Municipal Airport
Sunday 1:35 PM
Temperature70° (70°/57°)
Dew Point52°
Relative Humidity53
%
Visibility10
mi
Pressure1023.7
mb
Wind DirectionSSE
150°
Wind Speed18
mph
(G24)
Precipitation Today0.00"

Last 30 Observations

Time PresWx Temp DP Feels RH% Vsby Pressure Ceiling Direction Speed 1h Precip
1:15 PM 70° 52° 53
%
10
mi
1023.7
mb
SSE
160°
17
mph
0.00"
12:55 PM 70° 50° 49
%
10
mi
1024.1
mb
S
170°
15
mph
(G30)
0.00"
12:35 PM 70° 50° 49
%
10
mi
1024.1
mb
8,000
ft
SSE
160°
22
mph
0.00"
12:15 PM 66° 52° 60
%
10
mi
1024.4
mb
7,000
ft
SSE
160°
21
mph
0.00"
11:55 AM 66° 54° 64
%
10
mi
1024.4
mb
7,000
ft
SSE
150°
18
mph
(G24)
0.00"
11:35 AM 64° 54° 68
%
10
mi
1024.7
mb
7,000
ft
SSE
160°
17
mph
0.00"
11:15 AM 64° 57° 77
%
10
mi
1024.7
mb
7,000
ft
S
170°
11
mph
0.00"
10:55 AM 64° 55° 73
%
10
mi
1024.7
mb
7,000
ft
S
170°
9
mph
0.00"
10:35 AM 63° 55° 77
%
10
mi
1025.1
mb
7,500
ft
SSE
160°
10
mph
0.00"
10:15 AM 63° 55° 77
%
10
mi
1025.1
mb
4,200
ft
SSE
150°
10
mph
0.00"
9:55 AM 63° 54° 72
%
10
mi
1025.1
mb
4,400
ft
SE
140°
7
mph
0.00"
9:35 AM 63° 54° 72
%
10
mi
1025.1
mb
7,500
ft
SE
140°
9
mph
0.00"
9:15 AM 63° 54° 72
%
10
mi
1025.1
mb
6,000
ft
SE
140°
8
mph
0.00"
8:55 AM 61° 54° 77
%
10
mi
1024.7
mb
6,500
ft
SE
130°
10
mph
0.00"
8:35 AM 61° 54° 77
%
10
mi
1025.1
mb
7,000
ft
SE
130°
8
mph
0.00"
8:15 AM 61° 54° 77
%
10
mi
1024.7
mb
7,000
ft
SE
130°
8
mph
0.00"
7:55 AM 61° 54° 77
%
10
mi
1024.4
mb
5,000
ft
SSE
150°
8
mph
0.00"
7:35 AM 59° 54° 82
%
10
mi
1024.7
mb
5,500
ft
ESE
120°
6
mph
0.00"
7:15 AM 59° 54° 82
%
10
mi
1024.7
mb
6,000
ft
ESE
120°
3
mph
0.00"
6:55 AM 59° 54° 82
%
10
mi
1024.7
mb
6,000
ft
ESE
120°
6
mph
0.00"
6:35 AM 59° 54° 82
%
10
mi
1024.4
mb
6,000
ft
SE
130°
5
mph
0.00"
6:15 AM 59° 54° 82
%
10
mi
1024.4
mb
5,500
ft
Calm 0.00"
5:55 AM 59° 54° 82
%
10
mi
1023.7
mb
5,500
ft
ESE
120°
3
mph
0.00"
5:35 AM 59° 54° 82
%
10
mi
1023.7
mb
5,500
ft
SE
130°
3
mph
0.00"
5:15 AM 59° 54° 82
%
10
mi
1023.7
mb
6,000
ft
SE
130°
3
mph
0.00"
4:55 AM 59° 54° 82
%
10
mi
1023.4
mb
6,000
ft
ESE
120°
5
mph
0.00"
4:35 AM 59° 54° 82
%
10
mi
1023.7
mb
6,000
ft
Calm 0.00"
4:15 AM 59° 55° 88
%
10
mi
1023.7
mb
6,000
ft
Calm 0.00"
3:55 AM 59° 55° 88
%
10
mi
1023.7
mb
6,000
ft
Calm 0.00"
3:35 AM 59° 55° 88
%
10
mi
1024.1
mb
6,000
ft
E
90°
6
mph
0.00"